Burlington, VT

10:33 PM EDT on April 28, 2017 (GMT -0400)
Burlington International

Weather History for KBTV - December, 2012

Change the Weather History Date:

Wednesday, December 26, 2012

  Actual Average Record
Temperature  
Mean Temperature 16 °F 22 °F  
Max Temperature 23 °F 30 °F 58 °F (1982)
Min Temperature 8 °F 14 °F -26 °F (1980)
Degree Days  
Heating Degree Days 49 43  
Month to date heating degree days 830 994  
Since 1 July heating degree days 2182 2539  
Cooling Degree Days 0 0  
Month to date cooling degree days 0 0  
Year to date cooling degree days 747 491  
Moisture  
Dew Point 9 °F    
Average Humidity 76    
Maximum Humidity 84    
Minimum Humidity 67    
Precipitation  
Precipitation T in 0.07 in 1.09 in (1957)
Month to date precipitation 2.05 2.04  
Year to date precipitation 34.69 36.48  
Snow  
Snow T in 0.70 in 9.40 in (1969)
Month to date snowfall 4.5 14.6  
Since 1 July snowfall 8.3 20.0  
Snow Depth T in    
Sea Level Pressure  
Sea Level Pressure 30.30 in    
Wind  
Wind Speed 5 mph (NNE)    
Max Wind Speed 13 mph    
Max Gust Speed 15 mph    
Visibility 10 miles    
Events Snow    
T = Trace of Precipitation, MM = Missing Value Source: NWS Daily Summary

Daily Weather History Graph

Daily Weather History Graph

Search for Another Location

Airport or City:

Trip Planner

Search our weather history database for the weather conditions in past years. The results will help you decide how hot, cold, wet, or windy it might be!

Date:

Astronomy

Dec. 26, 2012 Rise Set
Actual Time 7:28 AM EST 4:19 PM EST
Civil Twilight 6:54 AM EST 4:52 PM EST
Nautical Twilight 6:17 AM EST 5:29 PM EST
Astronomical Twilight 5:42 AM EST 6:04 PM EST
Moon 3:11 PM EST (12/26) 5:48 AM EST (12/26)
Length of Visible Light 9h 57m
Length of Day
8h 50m
Waxing Gibbous, 97% of the Moon is Illuminated
Dec 26
Waxing Gibbous
Dec 28
Full
Jan 4
Last Quarter
Jan 11
New
Jan 18
First Quarter

Hourly Weather History & Observations

Time (EST) Temp. Windchill Dew Point Humidity Pressure Visibility Wind Dir Wind Speed Gust Speed Precip Events Conditions
12:54 AM 10.9 °F 4.7 °F 7.0 °F 84% 30.37 in 10.0 mi East 3.5 mph - N/A   Clear
1:54 AM 12.0 °F 5.9 °F 8.1 °F 84% 30.39 in 10.0 mi ESE 3.5 mph - N/A   Scattered Clouds
2:02 AM 12.2 °F 4.3 °F 6.8 °F 79% 30.37 in 10.0 mi ESE 4.6 mph - N/A   Mostly Cloudy
2:33 AM 10.4 °F 4.0 °F 6.8 °F 85% 30.37 in 10.0 mi East 3.5 mph - N/A   Partly Cloudy
2:54 AM 10.9 °F 4.7 °F 7.0 °F 84% 30.41 in 10.0 mi ESE 3.5 mph - N/A   Partly Cloudy
3:54 AM 10.0 °F 3.6 °F 5.0 °F 80% 30.41 in 10.0 mi East 3.5 mph - N/A   Scattered Clouds
4:54 AM 10.0 °F - 6.1 °F 84% 30.39 in 10.0 mi Calm Calm - N/A   Clear
5:54 AM 9.0 °F 0.6 °F 5.0 °F 84% 30.38 in 10.0 mi East 4.6 mph - N/A   Clear
6:54 AM 8.1 °F - 3.0 °F 80% 30.38 in 8.0 mi Calm Calm - N/A   Clear
7:54 AM 9.0 °F 2.4 °F 5.0 °F 84% 30.40 in 10.0 mi NE 3.5 mph - N/A   Clear
8:54 AM 12.0 °F 5.9 °F 7.0 °F 80% 30.40 in 10.0 mi ENE 3.5 mph - N/A   Clear
9:54 AM 17.1 °F - 10.0 °F 74% 30.39 in 10.0 mi Calm Calm - N/A   Clear
10:54 AM 19.9 °F - 10.9 °F 68% 30.35 in 10.0 mi Calm Calm - N/A   Clear
11:54 AM 21.9 °F 15.7 °F 12.0 °F 66% 30.32 in 10.0 mi North 4.6 mph - N/A   Clear
12:54 PM 21.9 °F 14.5 °F 12.9 °F 68% 30.30 in 10.0 mi NW 5.8 mph - N/A   Partly Cloudy
1:54 PM 21.0 °F 10.6 °F 14.0 °F 74% 30.29 in 10.0 mi NW 9.2 mph - N/A   Scattered Clouds
2:54 PM 21.9 °F 12.5 °F 14.0 °F 72% 30.29 in 10.0 mi NW 8.1 mph - N/A   Mostly Cloudy
3:54 PM 19.9 °F 10.1 °F 12.0 °F 71% 30.25 in 10.0 mi NNW 8.1 mph - N/A   Overcast
4:54 PM 19.0 °F 10.0 °F 12.0 °F 74% 30.24 in 10.0 mi North 6.9 mph - N/A   Clear
5:54 PM 18.0 °F 6.9 °F 10.9 °F 74% 30.23 in 10.0 mi North 9.2 mph - N/A   Clear
6:54 PM 18.0 °F 6.9 °F 10.9 °F 74% 30.20 in 10.0 mi North 9.2 mph - N/A   Clear
7:54 PM 17.1 °F 8.7 °F 10.9 °F 77% 30.18 in 10.0 mi NNW 5.8 mph - N/A   Clear
8:54 PM 17.1 °F 5.0 °F 10.9 °F 77% 30.12 in 10.0 mi North 10.4 mph - N/A   Overcast
9:54 PM 17.1 °F 7.6 °F 10.9 °F 77% 30.11 in 10.0 mi North 6.9 mph - N/A   Overcast
10:54 PM 17.1 °F 6.6 °F 12.0 °F 81% 30.08 in 10.0 mi NNW 8.1 mph - N/A   Overcast
11:51 PM 17.6 °F 9.3 °F 12.2 °F 79% 30.03 in 9.0 mi North 5.8 mph - N/A   Overcast
11:54 PM 18.0 °F 12.7 °F 12.9 °F 81% 30.05 in 8.0 mi North 3.5 mph - 0.00 in Snow Light Snow